Los Angeles, CA

3:21 AM PST on February 08, 2016 (GMT -0800)
Los Angeles Downtown

Weather History for KCQT - July, 2013

Change the Weather History Date:

Saturday, July 13, 2013

  Actual Average Record
Temperature  
Mean Temperature 72 °F 73 °F  
Max Temperature 81 °F 83 °F 98 °F (1990)
Min Temperature 62 °F 64 °F 51 °F (1888)
Degree Days  
Heating Degree Days 0 0  
Month to date heating degree days 0 0  
Since 1 June heating degree days 0 8  
Since 1 July heating degree days 0 0  
Cooling Degree Days 7 8  
Month to date cooling degree days 117 100  
Year to date cooling degree days 442 388  
Since 1 June cooling degree days 284 234  
Growing Degree Days 21 (Base 50)    
Moisture  
Dew Point 60 °F    
Average Humidity 71    
Maximum Humidity 90    
Minimum Humidity 51    
Precipitation  
Precipitation 0.00 in 0.00 in 0.02 in (1887)
Month to date precipitation 0.04 0.00  
Year to date precipitation 2.67 10.61  
Since 1 July precipitation 0.04  
Sea Level Pressure  
Sea Level Pressure 29.91 in    
Wind  
Wind Speed 1 mph (West)    
Max Wind Speed 9 mph    
Max Gust Speed 15 mph    
Visibility 7 miles    
Events      
T = Trace of Precipitation, MM = Missing Value Source: NWS Daily Summary

Daily Weather History Graph

Daily Weather History Graph

Search for Another Location

Airport or City:

Trip Planner

Search our weather history database for the weather conditions in past years. The results will help you decide how hot, cold, wet, or windy it might be!

Date:

Astronomy

Jul. 13, 2013 Rise Set
Actual Time 5:51 AM PDT 8:05 PM PDT
Civil Twilight 5:23 AM PDT 8:34 PM PDT
Nautical Twilight 4:48 AM PDT 9:09 PM PDT
Astronomical Twilight 4:10 AM PDT 9:46 PM PDT
Moon 10:55 AM PDT (7/13) 11:06 PM PDT (7/13)
Length of Visible Light 15h 11m
Length of Day
14h 13m
Waxing Crescent, 26% of the Moon is Illuminated
Jul 13
Waxing Crescent
Jul 15
First Quarter
Jul 22
Full
Jul 29
Last Quarter
Aug 6
New

Hourly Weather History & Observations

Time (PDT) Temp. Heat Index Dew Point Humidity Pressure Visibility Wind Dir Wind Speed Gust Speed Precip Events Conditions
12:47 AM 63.0 °F - 59.0 °F 87% 29.93 in 6.0 mi Calm Calm - N/A   Mostly Cloudy
1:02 AM 62.6 °F - 57.2 °F 82% 29.93 in 7.0 mi Calm Calm - N/A   Scattered Clouds
1:47 AM 63.0 °F - 57.9 °F 84% 29.93 in 6.0 mi Calm Calm - N/A   Haze
2:47 AM 62.1 °F - 59.0 °F 90% 29.93 in 5.0 mi Calm Calm - N/A   Clear
3:00 AM 62.6 °F - 59.0 °F 88% 29.93 in 4.0 mi Calm Calm - N/A   Mostly Cloudy
3:22 AM 62.6 °F - 60.8 °F 94% 29.93 in 4.0 mi Calm Calm - N/A   Overcast
3:47 AM 64.0 °F - 60.1 °F 87% 29.92 in 4.0 mi Calm Calm - N/A   Overcast
4:47 AM 64.0 °F - 60.1 °F 87% 29.92 in 4.0 mi Calm Calm - N/A   Overcast
5:47 AM 64.0 °F - 60.1 °F 87% 29.93 in 4.0 mi Calm Calm - N/A   Overcast
6:47 AM 64.9 °F - 60.1 °F 84% 29.94 in 3.0 mi Calm Calm - N/A   Haze
7:47 AM 66.0 °F - 60.1 °F 81% 29.94 in 3.0 mi Calm Calm - N/A   Haze
8:36 AM 66.2 °F - 60.8 °F 83% 29.95 in 3.0 mi Calm Calm - N/A   Haze
8:47 AM 69.1 °F - 60.1 °F 73% 29.95 in 3.0 mi Calm Calm - N/A   Haze
9:47 AM 75.0 °F - 61.0 °F 62% 29.94 in 4.0 mi Calm Calm - N/A   Haze
10:47 AM 77.0 °F - 60.1 °F 56% 29.94 in 5.0 mi Calm Calm - N/A   Haze
11:47 AM 80.1 °F 81.1 °F 61.0 °F 52% 29.93 in 6.0 mi Calm Calm - N/A   Haze
12:47 PM 79.0 °F - 60.1 °F 52% 29.92 in 8.0 mi WSW 3.5 mph - N/A   Clear
1:47 PM 77.0 °F - 60.1 °F 56% 29.91 in 10.0 mi Variable 4.6 mph - N/A   Clear
2:47 PM 75.9 °F - 60.1 °F 58% 29.90 in 10.0 mi Variable 3.5 mph - N/A   Clear
3:47 PM 75.9 °F - 60.1 °F 58% 29.88 in 10.0 mi Variable 3.5 mph - N/A   Clear
4:47 PM 75.0 °F - 59.0 °F 57% 29.86 in 10.0 mi Variable 5.8 mph - N/A   Clear
5:47 PM 72.0 °F - 59.0 °F 64% 29.86 in 10.0 mi Calm Calm - N/A   Clear
6:47 PM 68.0 °F - 59.0 °F 73% 29.87 in 10.0 mi Variable 4.6 mph - N/A   Clear
7:02 PM 68.0 °F - 60.8 °F 78% 29.87 in 10.0 mi Calm Calm - N/A   Mostly Cloudy
7:21 PM 66.2 °F - 60.8 °F 83% 29.87 in 10.0 mi Variable 4.6 mph - N/A   Overcast
7:47 PM 66.0 °F - 60.1 °F 81% 29.88 in 10.0 mi West 4.6 mph - N/A   Overcast
8:47 PM 64.0 °F - 59.0 °F 84% 29.89 in 8.0 mi Calm Calm - N/A   Overcast
9:47 PM 64.0 °F - 59.0 °F 84% 29.91 in 10.0 mi Calm Calm - N/A   Overcast
10:08 PM 64.4 °F - 57.2 °F 77% 29.92 in 10.0 mi Calm Calm - N/A   Scattered Clouds
10:47 PM 64.0 °F - 57.9 °F 80% 29.92 in 10.0 mi Calm Calm - N/A   Clear
11:47 PM 64.0 °F - 57.9 °F 80% 29.91 in 10.0 mi West 3.5 mph - N/A   Clear